OBJECT A 1 45985U 20053A 21061.27548641 -.00000275 00000-0 00000+0 0 9992 2 45985 0.0460 275.6880 0001303 281.0496 163.2371 1.00041080 2263 OBJECT B 1 45986U 20053B 21058.53931863 -.00000142 00000-0 00000-0 0 9994 2 45986 0.0380 286.3381 0001045 181.1719 324.2038 1.00272702 2234 BREEZE-M R/B 1 45987U 20053C 21061.35773848 -.00000112 00000-0 00000-0 0 9993 2 45987 0.1539 136.1185 4662107 329.5265 308.9857 1.03581476 2227 BREEZE-M DEB [TANK] 1 45988U 20053D 21060.38057285 .00000665 00000-0 18994-3 0 9992 2 45988 49.3043 182.2096 6328816 262.8344 26.3288 3.52976783 7613